| time (UTC) | temp F | wind direction | speed knots | gust knots | rain 1hr in | rain 24hr in | rain mn in | humidity % | barometer mb |
| 20260506095801 | 51 | 230 | 3.5 | 0.0 | 0.00 | 0.00 | 0.00 | 90 | 1005.8 |
| 20260506095702 | 51 | 230 | 3.5 | 0.0 | 0.00 | 0.00 | 0.00 | 90 | 1005.8 |
| 20260506095601 | 51 | 230 | 3.5 | 0.0 | 0.00 | 0.00 | 0.00 | 90 | 1005.8 |
| 20260506095502 | 51 | 242 | 3.5 | 0.0 | 0.00 | 0.00 | 0.00 | 90 | 1005.7 |
| 20260506095402 | 51 | 242 | 3.5 | 0.0 | 0.00 | 0.00 | 0.00 | 90 | 1005.7 |
| 20260506095305 | 51 | 235 | 3.5 | 0.0 | 0.00 | 0.00 | 0.00 | 90 | 1005.7 |
| 20260506095202 | 51 | 235 | 3.5 | 0.0 | 0.00 | 0.00 | 0.00 | 90 | 1005.7 |
| 20260506095101 | 51 | 235 | 3.5 | 0.0 | 0.00 | 0.00 | 0.00 | 90 | 1005.7 |
| 20260506095002 | 51 | 222 | 5.2 | 0.0 | 0.00 | 0.00 | 0.00 | 90 | 1005.7 |
| 20260506094901 | 51 | 222 | 5.2 | 0.0 | 0.00 | 0.00 | 0.00 | 90 | 1005.7 |
| 20260506094802 | 51 | 250 | 4.3 | 0.0 | 0.00 | 0.00 | 0.00 | 90 | 1005.7 |
| 20260506094701 | 51 | 250 | 4.3 | 0.0 | 0.00 | 0.00 | 0.00 | 90 | 1005.7 |
| 20260506094602 | 51 | 250 | 4.3 | 0.0 | 0.00 | 0.00 | 0.00 | 90 | 1005.7 |
| 20260506094502 | 51 | 250 | 4.3 | 0.0 | 0.00 | 0.00 | 0.00 | 90 | 1005.7 |
| 20260506094401 | 51 | 250 | 4.3 | 0.0 | 0.00 | 0.00 | 0.00 | 90 | 1005.7 |
| 20260506094302 | 51 | 230 | 3.5 | 0.0 | 0.00 | 0.00 | 0.00 | 90 | 1005.7 |
| 20260506094201 | 51 | 230 | 3.5 | 0.0 | 0.00 | 0.00 | 0.00 | 90 | 1005.6 |
| 20260506094102 | 51 | 230 | 3.5 | 0.0 | 0.00 | 0.00 | 0.00 | 90 | 1005.6 |
| 20260506094001 | 51 | 217 | 3.5 | 0.0 | 0.00 | 0.00 | 0.00 | 91 | 1005.6 |
| 20260506093902 | 51 | 217 | 3.5 | 0.0 | 0.00 | 0.00 | 0.00 | 91 | 1005.5 |
| 20260506093802 | 51 | 217 | 3.5 | 0.0 | 0.00 | 0.00 | 0.00 | 91 | 1005.6 |
| 20260506093702 | 51 | 217 | 3.5 | 0.0 | 0.00 | 0.00 | 0.00 | 91 | 1005.5 |
| 20260506093602 | 51 | 217 | 3.5 | 0.0 | 0.00 | 0.00 | 0.00 | 91 | 1005.5 |
| 20260506093502 | 51 | 230 | 3.5 | 0.0 | 0.00 | 0.00 | 0.00 | 91 | 1005.5 |
| 20260506093402 | 51 | 230 | 3.5 | 0.0 | 0.00 | 0.00 | 0.00 | 91 | 1005.5 |
| 20260506093301 | 51 | 230 | 3.5 | 0.0 | 0.00 | 0.00 | 0.00 | 91 | 1005.5 |
| 20260506093202 | 51 | 230 | 3.5 | 0.0 | 0.00 | 0.00 | 0.00 | 91 | 1005.5 |
| 20260506093101 | 51 | 230 | 3.5 | 0.0 | 0.00 | 0.00 | 0.00 | 91 | 1005.5 |
| 20260506093002 | 51 | 235 | 2.6 | 0.0 | 0.00 | 0.00 | 0.00 | 91 | 1005.6 |
| 20260506092901 | 51 | 235 | 2.6 | 0.0 | 0.00 | 0.00 | 0.00 | 91 | 1005.6 |
| 20260506092802 | 51 | 235 | 2.6 | 0.0 | 0.00 | 0.00 | 0.00 | 91 | 1005.6 |
| 20260506092702 | 51 | 240 | 0.0 | 0.0 | 0.00 | 0.00 | 0.00 | 91 | 1005.7 |
| 20260506092601 | 51 | 240 | 0.0 | 0.0 | 0.00 | 0.00 | 0.00 | 91 | 1005.7 |
| 20260506092502 | 51 | 247 | 0.0 | 0.0 | 0.00 | 0.00 | 0.00 | 91 | 1005.7 |
| 20260506092401 | 51 | 247 | 0.0 | 0.0 | 0.00 | 0.00 | 0.00 | 91 | 1005.7 |
| 20260506092302 | 51 | 247 | 0.0 | 0.0 | 0.00 | 0.00 | 0.00 | 91 | 1005.8 |
| 20260506092201 | 51 | 247 | 0.0 | 0.0 | 0.00 | 0.00 | 0.00 | 91 | 1005.7 |